Weather in Kostiantynivka

Ukraine / Zaporizhia Region     47°33′25″N   36°17′24″E
В апреле 2022 года жителям России запретили посещать сайт meteo.paraplan.net по решению Генеральной прокуратуры. Аудитория сайта уменьшилась в 10 раз. Владельцы сайта не видят смысла в поддержке погодного сервера в таких условиях. Сайт будет закрыт в октябре.
temp.,
°C
wind,
m/s
gust,
m/s
humid.,
%
clouds,
%
prec.,
mm/h
press.,
hPa
HPBL,
m
3 october, mon
mon300:00+13wnw8117933 0.5 1002936
03:00+12w71265100 0.5 10051504
06:00+12wsw6107596 0.1 1007878
09:00+12wsw8107239 0.1 1009856
12:00+15wsw81152100 0.1 10101903
15:00+16w8124670 0.1 10111842
18:00+14sw475347 0.0 1012142
21:00+14s495670 0.0 1012239
4 october, tue
tue400:00+13s5116896 0.1 1012334
03:00+12sse488227 0.4 1012181
06:00+11ssw36865 0.0 1013104
09:00+14wsw23695 0.0 1014344
12:00+18sw46493 0.0 10141380
15:00+19wsw57410 0.0 10142051
18:00+15wnw475212 0.0 1016177
21:00+12wnw36641 0.0 1018129
5 october, wed
wed500:00+11wnw23612 0.0 101940
03:00+9w33670 0.0 102049
06:00+8wsw34755 0.0 102282
09:00+12wsw47645 0.0 1022641
12:00+16w674923 0.0 10231579
15:00+16w7846100 0.0 10221866
18:00+15wnw5953100 0.0 1024729
21:00+11nnw3666100 0.0 1025130
6 october, thu
thu600:00+10nw237472 0.0 1026103
03:00+9nw247983 0.0 102692
06:00+8nnw2281100 0.0 102726
09:00+11nnw226611 0.0 1027309
12:00+15wnw334598 0.0 1027937
15:00+17wnw334290 0.0 10251141
18:00+14w33523 0.0 102631
21:00+12wsw33585 0.0 102629
7 october, fri
fri700:00+12sw336013 0.0 102635
03:00+11wsw3464100 0.0 102648
06:00+10wsw2368100 0.0 102625
09:00+14w235777 0.0 1026229
12:00+19nw334288 0.0 1025870
15:00+21nnw334243 0.0 10241471
18:00+17nne34576 0.0 102452
21:00+14ne36695 0.0 1024106